TimeEEST,TemperatureF,Dew PointF,Humidity,Sea Level PressureIn,VisibilityMPH,Wind Direction,Wind SpeedMPH,Gust SpeedMPH,PrecipitationIn,Events,Conditions,WindDirDegrees,DateUTC
12:50 AM,78.8,55.4,44,29.74,-9999.0,Calm,Calm,-,N/A,,Clear,0,2013-07-30 21:50:00
1:50 AM,78.8,55.4,44,29.74,-9999.0,Calm,Calm,-,N/A,,Clear,0,2013-07-30 22:50:00
2:50 AM,78.8,55.4,44,29.74,-9999.0,NNW,4.6,-,N/A,,Clear,340,2013-07-30 23:50:00
4:50 AM,77.0,53.6,44,29.74,-9999.0,Calm,Calm,-,N/A,,Clear,0,2013-07-31 01:50:00
5:50 AM,77.0,51.8,41,29.74,-9999.0,North,4.6,-,N/A,,Clear,360,2013-07-31 02:50:00
6:20 AM,75.2,53.6,47,29.74,-9999.0,Calm,Calm,-,N/A,,Clear,0,2013-07-31 03:20:00
6:50 AM,77.0,53.6,44,29.74,-9999.0,Calm,Calm,-,N/A,,Clear,0,2013-07-31 03:50:00
7:20 AM,78.8,53.6,42,29.74,-9999.0,Calm,Calm,-,N/A,,Clear,0,2013-07-31 04:20:00
7:50 AM,82.4,53.6,37,29.74,-9999.0,Calm,Calm,-,N/A,,Clear,0,2013-07-31 04:50:00
8:20 AM,84.2,53.6,35,29.74,-9999.0,Calm,Calm,-,N/A,,Clear,0,2013-07-31 05:20:00
8:50 AM,86.0,53.6,33,29.74,-9999.0,Calm,Calm,-,N/A,,Clear,0,2013-07-31 05:50:00
9:20 AM,89.6,53.6,29,29.74,-9999.0,Calm,Calm,-,N/A,,Clear,0,2013-07-31 06:20:00
9:50 AM,93.2,53.6,26,29.74,-9999.0,NNW,9.2,-,N/A,,Clear,340,2013-07-31 06:50:00
10:20 AM,93.2,55.4,28,29.74,-9999.0,North,11.5,-,N/A,,Clear,350,2013-07-31 07:20:00
10:50 AM,93.2,57.2,30,29.74,-9999.0,North,11.5,-,N/A,,Clear,350,2013-07-31 07:50:00
11:20 AM,95.0,57.2,28,29.74,-9999.0,North,10.4,-,N/A,,Clear,350,2013-07-31 08:20:00
11:50 AM,95.0,59.0,30,29.74,-9999.0,North,11.5,-,N/A,,Clear,350,2013-07-31 08:50:00
12:20 PM,95.0,57.2,28,29.74,-9999.0,North,10.4,-,N/A,,Clear,350,2013-07-31 09:20:00
12:50 PM,96.8,59.0,28,29.74,-9999.0,North,8.1,-,N/A,,Clear,360,2013-07-31 09:50:00
1:20 PM,96.8,59.0,28,29.74,-9999.0,North,9.2,-,N/A,,Clear,350,2013-07-31 10:20:00
1:50 PM,98.6,59.0,27,29.74,-9999.0,North,8.1,-,N/A,,Clear,350,2013-07-31 10:50:00
2:20 PM,98.6,59.0,27,29.71,-9999.0,North,8.1,-,N/A,,Clear,10,2013-07-31 11:20:00
2:50 PM,98.6,59.0,27,29.71,6.2,NNW,5.8,-,N/A,,Partly Cloudy,340,2013-07-31 11:50:00
3:20 PM,98.6,59.0,27,29.71,6.2,North,9.2,-,N/A,,Partly Cloudy,360,2013-07-31 12:20:00
3:50 PM,98.6,59.0,27,29.71,6.2,NW,6.9,-,N/A,,Partly Cloudy,320,2013-07-31 12:50:00
4:20 PM,100.4,59.0,25,29.71,6.2,NW,5.8,-,N/A,,Partly Cloudy,320,2013-07-31 13:20:00
4:50 PM,98.6,59.0,27,29.71,6.2,North,5.8,-,N/A,,Partly Cloudy,350,2013-07-31 13:50:00
5:20 PM,98.6,59.0,27,29.68,6.2,North,6.9,-,N/A,,Partly Cloudy,360,2013-07-31 14:20:00
5:50 PM,98.6,59.0,27,29.68,6.2,ENE,11.5,-,N/A,,Partly Cloudy,70,2013-07-31 14:50:00
6:20 PM,96.8,59.0,28,29.68,6.2,ENE,11.5,-,N/A,,Partly Cloudy,70,2013-07-31 15:20:00
6:50 PM,95.0,59.0,30,29.71,6.2,North,11.5,-,N/A,,Partly Cloudy,10,2013-07-31 15:50:00
7:20 PM,95.0,59.0,30,29.71,6.2,NNE,9.2,-,N/A,,Partly Cloudy,20,2013-07-31 16:20:00
7:50 PM,93.2,57.2,30,29.71,-9999.0,North,5.8,-,N/A,,Clear,10,2013-07-31 16:50:00
8:20 PM,89.6,57.2,33,29.74,6.2,Variable,3.5,-,N/A,,Partly Cloudy,0,2013-07-31 17:20:00
8:50 PM,89.6,57.2,33,29.74,6.2,Variable,3.5,-,N/A,,Partly Cloudy,0,2013-07-31 17:50:00
9:50 PM,87.8,57.2,35,29.77,6.2,Calm,Calm,-,N/A,,Partly Cloudy,0,2013-07-31 18:50:00
10:20 PM,86.0,57.2,37,29.77,6.2,Calm,Calm,-,N/A,,Partly Cloudy,0,2013-07-31 19:20:00
10:50 PM,86.0,59.0,40,29.80,6.2,NNW,6.9,-,N/A,,Partly Cloudy,330,2013-07-31 19:50:00
11:20 PM,86.0,59.0,40,29.80,6.2,NNW,6.9,-,N/A,,Partly Cloudy,330,2013-07-31 20:20:00
11:50 PM,86.0,59.0,40,29.80,6.2,North,5.8,-,N/A,,Partly Cloudy,350,2013-07-31 20:50:00